EN

Hourly Weather Kyzyloba

Today, 26 July, Monday

Time Temperature Precipitation Wind Pressure Humidity
00:00 +24°C° 0 mm 3 mps 764 mmHg 35%
01:00 +22°C° 0 mm 3 mps 764 mmHg 36%
02:00 +22°C° 0 mm 3 mps 764 mmHg 37%
03:00 +21°C° 0 mm 3 mps 764 mmHg 39%
04:00 +21°C° 0 mm 4 mps 765 mmHg 37%
05:00 +22°C° 0 mm 4 mps 765 mmHg 35%
06:00 +22°C° 0 mm 5 mps 765 mmHg 34%
07:00 +25°C° 0 mm 5 mps 765 mmHg 31%
08:00 +26°C° 0 mm 5 mps 765 mmHg 27%
09:00 +27°C° 0 mm 6 mps 766 mmHg 24%
10:00 +28°C° 0 mm 6 mps 766 mmHg 24%
11:00 +28°C° 0 mm 5 mps 766 mmHg 23%
12:00 +29°C° 0 mm 5 mps 766 mmHg 23%
13:00 +29°C° 0 mm 5 mps 765 mmHg 22%
14:00 +30°C° 0 mm 5 mps 765 mmHg 21%
15:00 +30°C° 0 mm 5 mps 764 mmHg 20%
16:00 +30°C° 0 mm 4 mps 764 mmHg 20%
17:00 +30°C° 0 mm 4 mps 764 mmHg 20%
18:00 +29°C° 0 mm 4 mps 764 mmHg 20%
19:00 +28°C° 0 mm 4 mps 764 mmHg 23%
20:00 +27°C° 0 mm 3 mps 764 mmHg 25%
21:00 +25°C° 0 mm 3 mps 764 mmHg 28%
22:00 +25°C° 0 mm 3 mps 764 mmHg 29%
23:00 +24°C° 0 mm 3 mps 764 mmHg 31%

Tomorrow, 27 July, Tuesday

Time Temperature Precipitation Wind Pressure Humidity
00:00 +22°C° 0 mm 3 mps 765 mmHg 33%
01:00 +22°C° 0 mm 3 mps 764 mmHg 35%
02:00 +21°C° 0 mm 3 mps 764 mmHg 37%
03:00 +20°C° 0 mm 3 mps 764 mmHg 39%
04:00 +21°C° 0 mm 3 mps 765 mmHg 38%
05:00 +22°C° 0 mm 3 mps 765 mmHg 38%
06:00 +22°C° 0 mm 3 mps 765 mmHg 37%
07:00 +25°C° 0 mm 3 mps 765 mmHg 34%
08:00 +26°C° 0 mm 3 mps 764 mmHg 31%
09:00 +28°C° 0 mm 3 mps 764 mmHg 28%
10:00 +28°C° 0 mm 4 mps 764 mmHg 26%
11:00 +29°C° 0 mm 4 mps 764 mmHg 25%
12:00 +30°C° 0 mm 4 mps 763 mmHg 23%
13:00 +30°C° 0 mm 4 mps 763 mmHg 22%
14:00 +32°C° 0 mm 4 mps 762 mmHg 21%
15:00 +32°C° 0 mm 4 mps 762 mmHg 20%
16:00 +31°C° 0 mm 3 mps 762 mmHg 20%
17:00 +31°C° 0 mm 3 mps 762 mmHg 20%
18:00 +30°C° 0 mm 3 mps 762 mmHg 21%
19:00 +29°C° 0 mm 3 mps 761 mmHg 23%
20:00 +28°C° 0 mm 2 mps 761 mmHg 25%
21:00 +26°C° 0 mm 2 mps 761 mmHg 28%
22:00 +26°C° 0 mm 2 mps 761 mmHg 29%
23:00 +26°C° 0 mm 2 mps 761 mmHg 30%

Day after tomorrow, 28 July, Wednesday

Time Temperature Precipitation Wind Pressure Humidity
00:00 +26°C° 0 mm 2 mps 761 mmHg 31%
01:00 +25°C° 0 mm 2 mps 761 mmHg 32%
02:00 +25°C° 0 mm 3 mps 761 mmHg 33%
03:00 +25°C° 0 mm 3 mps 761 mmHg 35%
04:00 +25°C° 0 mm 3 mps 761 mmHg 35%
05:00 +25°C° 0 mm 3 mps 761 mmHg 36%
06:00 +25°C° 0 mm 3 mps 761 mmHg 37%
07:00 +27°C° 0 mm 3 mps 761 mmHg 35%
08:00 +28°C° 0 mm 4 mps 761 mmHg 33%
09:00 +30°C° 0 mm 4 mps 761 mmHg 31%
10:00 +30°C° 0 mm 4 mps 761 mmHg 29%
11:00 +32°C° 0 mm 4 mps 761 mmHg 27%
12:00 +33°C° 0 mm 4 mps 760 mmHg 25%
13:00 +33°C° 0 mm 4 mps 760 mmHg 24%
14:00 +34°C° 0 mm 4 mps 760 mmHg 22%
15:00 +34°C° 0 mm 4 mps 759 mmHg 21%
16:00 +34°C° 0 mm 4 mps 759 mmHg 22%
17:00 +33°C° 0 mm 4 mps 759 mmHg 23%
18:00 +33°C° 0 mm 5 mps 759 mmHg 24%
19:00 +32°C° 0 mm 4 mps 759 mmHg 26%
20:00 +30°C° 0 mm 3 mps 760 mmHg 28%
21:00 +29°C° 0 mm 3 mps 760 mmHg 30%
22:00 +28°C° 0 mm 3 mps 760 mmHg 33%
23:00 +27°C° 0 mm 2 mps 760 mmHg 35%

29 July, Thursday

Time Temperature Precipitation Wind Pressure Humidity
00:00 +26°C° 0 mm 2 mps 760 mmHg 38%
01:00 +26°C° 0 mm 2 mps 760 mmHg 38%
02:00 +26°C° 0 mm 2 mps 760 mmHg 37%
03:00 +26°C° 0 mm 2 mps 760 mmHg 37%
04:00 +27°C° 0 mm 2 mps 760 mmHg 36%
05:00 +27°C° 0 mm 2 mps 760 mmHg 36%
06:00 +27°C° 0 mm 2 mps 760 mmHg 35%
07:00 +29°C° 0 mm 3 mps 760 mmHg 31%
08:00 +31°C° 0 mm 3 mps 760 mmHg 28%
09:00 +33°C° 0 mm 3 mps 760 mmHg 24%
10:00 +34°C° 0 mm 3 mps 759 mmHg 22%
11:00 +35°C° 0 mm 3 mps 759 mmHg 20%
12:00 +36°C° 0 mm 3 mps 759 mmHg 19%
13:00 +36°C° 0 mm 4 mps 758 mmHg 18%
14:00 +37°C° 0 mm 4 mps 758 mmHg 18%
15:00 +37°C° 0 mm 4 mps 758 mmHg 18%
16:00 +37°C° 0 mm 4 mps 758 mmHg 18%
17:00 +37°C° 0 mm 4 mps 757 mmHg 19%
18:00 +36°C° 0 mm 3 mps 757 mmHg 20%
19:00 +35°C° 0 mm 3 mps 757 mmHg 21%
20:00 +34°C° 0 mm 4 mps 757 mmHg 22%
21:00 +33°C° 0 mm 4 mps 757 mmHg 24%
22:00 +32°C° 0 mm 4 mps 757 mmHg 24%
23:00 +31°C° 0 mm 3 mps 757 mmHg 25%

30 July, Friday

Time Temperature Precipitation Wind Pressure Humidity
00:00 +31°C° 0 mm 3 mps 757 mmHg 26%
01:00 +30°C° 0 mm 5 mps 757 mmHg 26%
02:00 +30°C° 0 mm 6 mps 757 mmHg 27%
03:00 +29°C° 0 mm 7 mps 757 mmHg 28%
04:00 +30°C° 0 mm 6 mps 757 mmHg 28%
05:00 +30°C° 0 mm 6 mps 757 mmHg 29%
06:00 +30°C° 0 mm 6 mps 757 mmHg 29%
07:00 +33°C° 0 mm 5 mps 757 mmHg 27%
08:00 +34°C° 0 mm 5 mps 757 mmHg 25%
09:00 +36°C° 0 mm 5 mps 757 mmHg 22%
10:00 +38°C° 0 mm 6 mps 757 mmHg 21%
11:00 +39°C° 0 mm 6 mps 757 mmHg 19%
12:00 +40°C° 0 mm 7 mps 757 mmHg 17%
13:00 +40°C° 0 mm 7 mps 756 mmHg 17%
14:00 +40°C° 0 mm 6 mps 756 mmHg 17%
15:00 +40°C° 0 mm 6 mps 756 mmHg 16%
16:00 +40°C° 0 mm 6 mps 756 mmHg 17%
17:00 +39°C° 0 mm 5 mps 755 mmHg 17%
18:00 +39°C° 0 mm 5 mps 755 mmHg 18%
19:00 +36°C° 0 mm 4 mps 755 mmHg 21%
20:00 +35°C° 0 mm 3 mps 756 mmHg 24%
21:00 +33°C° 0 mm 3 mps 756 mmHg 27%
22:00 +31°C° 0 mm 2 mps 756 mmHg 28%
23:00 +31°C° 0 mm 2 mps 756 mmHg 29%

31 July, Saturday

Time Temperature Precipitation Wind Pressure Humidity
00:00 +30°C° 0 mm 1 mps 756 mmHg 31%
01:00 +30°C° 0 mm 2 mps 756 mmHg 32%
02:00 +29°C° 0 mm 2 mps 756 mmHg 34%
03:00 +28°C° 0 mm 2 mps 756 mmHg 36%
04:00 +29°C° 0 mm 2 mps 756 mmHg 37%
05:00 +30°C° 0 mm 3 mps 756 mmHg 37%
06:00 +30°C° 0 mm 3 mps 756 mmHg 38%
07:00 +33°C° 0 mm 3 mps 757 mmHg 35%
08:00 +35°C° 0 mm 3 mps 757 mmHg 33%
09:00 +36°C° 0 mm 4 mps 757 mmHg 30%
10:00 +37°C° 0 mm 4 mps 757 mmHg 27%
11:00 +38°C° 0 mm 4 mps 756 mmHg 23%
12:00 +41°C° 0 mm 5 mps 756 mmHg 20%
13:00 +41°C° 0 mm 5 mps 756 mmHg 20%
14:00 +41°C° 0 mm 5 mps 756 mmHg 19%
15:00 +41°C° 0 mm 5 mps 756 mmHg 18%
16:00 +41°C° 0 mm 5 mps 756 mmHg 19%
17:00 +40°C° 0 mm 4 mps 756 mmHg 19%
18:00 +39°C° 0 mm 3 mps 756 mmHg 19%
19:00 +38°C° 0 mm 3 mps 756 mmHg 22%
20:00 +36°C° 0 mm 3 mps 756 mmHg 24%
21:00 +35°C° 0 mm 2 mps 756 mmHg 27%
22:00 +34°C° 0 mm 3 mps 757 mmHg 30%
23:00 +33°C° 0 mm 3 mps 757 mmHg 33%
Show more